Find Tianmu 1-20

NORAD ID: 58661 Int'l Des: 2023-208 Owner: TIANMU Country: CN operational
LEOCIRCULARRETROGRADESSO

当前视图

正在加载3D地球...

关于 Tianmu 1-20

正在加载描述...

即将过境

Passes for default location (London). Set your location on the main map for personalized predictions.

高度历史

Loading altitude history...

两行轨道根数

1 58661U 23208B 26151.21891171 .00010883 00000-0 34908-3 0 9993
2 58661 97.4434 268.0549 0007580 36.0401 324.1351 15.32482638134826
Epoch: May 31, 2026 • Age: 5 hours

当前状态

高度 478.6 km
速度 7.63 km/s
星下点 64.34°N, 58.22°E
发射日期 Dec 27, 2023
运行时间 2.4 years
类型 other

技术详情

分类 Payload
质量 50.00 kg
干质量 50.00 kg
总质量 50.00 kg
长度 1.50 m
直径 1.00 m
跨度 1.50 m
形状 Box
制造商 TIANMU
平台类型 Tianmu
阶段状态 In Orbit
所有者/国家 TIANMU/CN

Most Searched